GW6494 Weather Reports


time (UTC)temp
F
wind
direction
speed
knots
gust
knots
rain 1hr
in
rain 24hr
in
rain mn
in
humidity
%
barometer
mb
20260505011919 75 113 1.7 4.3 0.00 0.19 0.19 48 1004.0
20260505011416 76 347 1.7 2.6 0.00 0.19 0.19 48 1003.8
20260505010913 76 11 3.5 5.2 0.00 0.19 0.19 48 1003.9
20260505010408 76 354 1.7 3.5 0.00 0.19 0.19 47 1003.9
20260505005904 77 307 1.7 5.2 0.00 0.19 0.19 46 1003.8
20260505005401 77 132 3.5 4.3 0.00 0.19 0.19 46 1003.5
20260505004859 77 337 1.7 7.8 0.00 0.19 0.19 45 1003.6
20260505004355 77 84 1.7 6.1 0.00 0.19 0.19 45 1003.4
20260505003852 77 21 3.5 5.2 0.00 0.19 0.19 45 1003.3
20260505003350 78 66 1.7 6.1 0.00 0.19 0.19 45 1003.4
20260505002845 78 355 3.5 5.2 0.00 0.19 0.19 45 1003.5
20260505002342 78 338 2.6 5.2 0.00 0.19 0.19 44 1003.5
20260505001841 78 152 1.7 4.3 0.00 0.19 0.19 44 1003.5
20260505001338 79 325 1.7 6.1 0.00 0.19 0.19 44 1003.5
20260505000835 79 216 0.0 7.0 0.00 0.19 0.19 44 1003.4
20260505000333 79 236 3.5 5.2 0.00 0.19 0.19 44 1003.5
20260504235829 80 253 4.3 8.7 0.00 0.19 0.19 43 1003.4
20260504235326 80 32 2.6 5.2 0.00 0.19 0.19 43 1003.4
20260504234823 81 295 4.3 5.2 0.00 0.19 0.19 42 1003.4
20260504234320 81 37 2.6 4.3 0.00 0.19 0.19 42 1003.4
20260504233817 82 160 5.2 7.0 0.00 0.19 0.19 42 1003.3
20260504233312 82 299 1.7 8.7 0.00 0.19 0.19 43 1003.4
20260504232809 82 310 2.6 5.2 0.00 0.19 0.19 42 1003.5
20260504232307 83 139 3.5 13.0 0.00 0.19 0.19 41 1003.6
20260504231803 83 100 1.7 5.2 0.00 0.19 0.19 41 1003.8
20260504231300 83 307 4.3 7.8 0.00 0.19 0.19 40 1003.6
20260504230756 83 296 5.2 7.0 0.00 0.19 0.19 41 1003.7
20260504230254 83 60 0.0 5.2 0.00 0.19 0.19 41 1003.8
20260504225753 83 279 3.5 7.8 0.00 0.19 0.19 41 1003.9
20260504225248 83 254 5.2 8.7 0.00 0.19 0.19 42 1004.0
20260504224746 83 132 3.5 8.7 0.00 0.19 0.19 43 1003.9
20260504224243 83 297 5.2 7.8 0.00 0.19 0.19 41 1004.1
20260504223739 83 177 4.3 14.8 0.00 0.19 0.19 41 1004.1
20260504223235 83 175 2.6 5.2 0.00 0.19 0.19 42 1004.1
20260504222732 83 284 3.5 6.1 0.00 0.19 0.19 42 1004.1
20260504222229 83 157 7.8 10.4 0.00 0.19 0.19 43 1004.0
20260504221726 83 319 2.6 7.8 0.00 0.19 0.19 46 1004.0
20260504221223 84 156 2.6 8.7 0.00 0.19 0.19 44 1003.9
20260504220720 84 111 0.9 3.5 0.00 0.19 0.19 45 1004.1
20260504220217 84 128 3.5 4.3 0.00 0.19 0.19 44 1004.0
20260504215714 83 110 1.7 3.5 0.00 0.19 0.19 45 1003.9
20260504215211 83 323 3.5 5.2 0.00 0.19 0.19 45 1004.1
20260504214706 84 159 5.2 7.0 0.00 0.19 0.19 44 1004.2
20260504214203 83 141 4.3 4.3 0.00 0.19 0.19 47 1003.9
20260504213700 83 310 0.0 3.5 0.00 0.19 0.19 48 1003.9
20260504213157 82 82 0.0 3.5 0.00 0.19 0.19 47 1003.8
20260504212653 82 336 1.7 3.5 0.00 0.19 0.19 48 1004.0
20260504212150 82 16 1.7 5.2 0.00 0.19 0.19 50 1004.1
20260504211647 82 102 7.0 7.8 0.00 0.19 0.19 49 1004.4
20260504211143 80 36 0.9 2.6 0.00 0.19 0.19 55 1004.3
20260504210642 79 128 1.7 2.6 0.00 0.19 0.19 56 1004.4
20260504210137 78 46 0.9 3.5 0.00 0.19 0.19 57 1004.5
20260504205635 78 312 1.7 2.6 0.00 0.19 0.19 58 1004.6
20260504205132 77 79 2.6 3.5 0.00 0.19 0.19 58 1004.6
20260504204631 77 205 1.7 5.2 0.00 0.19 0.19 60 1004.8
20260504204129 75 2 2.6 7.0 0.00 0.19 0.19 61 1004.8
20260504203627 74 126 3.5 5.2 0.00 0.19 0.19 63 1004.9
20260504203120 73 50 2.6 11.3 0.00 0.19 0.19 64 1004.8
20260504202619 73 300 3.5 8.7 0.00 0.19 0.19 65 1005.0
20260504202117 71 349 1.7 5.2 0.00 0.19 0.19 69 1004.9
20260504201613 70 165 3.5 5.2 0.00 0.19 0.19 72 1005.0
20260504201111 68 318 2.6 10.4 0.00 0.19 0.19 73 1005.1
20260504200608 68 345 2.6 7.0 0.00 0.19 0.19 74 1005.1
20260504200104 69 132 2.6 9.6 0.09 0.19 0.19 68 1004.8
20260504195600 68 156 9.6 16.5 0.09 0.19 0.19 68 1004.2
20260504195057 67 224 4.3 11.3 0.00 0.18 0.18 75 1005.8
20260504194554 67 280 4.3 8.7 0.05 0.18 0.18 77 1006.0
20260504194049 67 355 2.6 5.2 0.09 0.18 0.18 76 1005.9
20260504193546 68 179 2.6 3.5 0.17 0.17 0.17 73 1005.8
20260504193045 69 102 2.6 6.1 0.09 0.15 0.15 70 1005.8
20260504192543 68 125 4.3 4.3 0.42 0.14 0.14 69 1006.1
20260504192040 68 64 7.0 10.4 0.69 0.13 0.13 75 1006.1
20260504191538 69 52 9.6 10.4 0.35 0.06 0.06 67 1006.4
20260504191034 71 323 10.4 19.1 0.00 0.00 0.00 61 1006.6
20260504190531 73 339 7.0 13.0 0.00 0.00 0.00 55 1006.4
20260504190026 74 329 9.6 14.8 0.00 0.00 0.00 53 1006.3
20260504185524 75 338 3.5 4.3 0.00 0.00 0.00 51 1006.1
20260504185020 75 11 1.7 3.5 0.00 0.00 0.00 49 1006.0
20260504184515 75 37 1.7 3.5 0.00 0.00 0.00 48 1006.1
20260504184011 76 342 1.7 2.6 0.00 0.00 0.00 49 1006.1
20260504183509 76 6 0.9 3.5 0.00 0.00 0.00 48 1006.4
20260504183007 76 124 3.5 4.3 0.00 0.00 0.00 47 1006.5
20260504182503 76 98 0.9 3.5 0.00 0.00 0.00 47 1006.6
20260504182000 77 192 4.3 5.2 0.00 0.00 0.00 47 1006.6
20260504181457 77 258 0.9 5.2 0.00 0.00 0.00 47 1006.6
20260504180956 78 49 2.6 4.3 0.00 0.00 0.00 48 1006.6
20260504180455 78 144 5.2 6.1 0.00 0.00 0.00 46 1006.3
20260504175953 78 141 3.5 3.5 0.00 0.00 0.00 48 1006.4
20260504175449 78 148 3.5 8.7 0.00 0.00 0.00 48 1006.5
20260504174947 77 147 5.2 7.0 0.00 0.00 0.00 49 1006.5
20260504174444 76 137 6.1 9.6 0.00 0.00 0.00 49 1006.6
20260504173942 75 97 2.6 4.3 0.00 0.00 0.00 51 1006.7
20260504173437 75 26 3.5 4.3 0.00 0.00 0.00 52 1006.7
20260504172936 75 49 0.9 3.5 0.00 0.00 0.00 53 1006.8
20260504172431 73 0 3.5 6.1 0.00 0.00 0.00 55 1006.7
20260504171928 72 89 2.6 4.3 0.00 0.00 0.00 56 1006.9
20260504171425 70 81 3.5 3.5 0.00 0.00 0.00 57 1007.0
20260504170922 70 60 1.7 3.5 0.00 0.00 0.00 57 1007.6
20260504170418 70 59 2.6 3.5 0.00 0.00 0.00 57 1007.7
20260504160337 69 48 1.7 2.6 0.00 0.00 0.00 58 1008.7
20260504150802 72 307 1.7 4.3 0.00 0.00 0.00 54 1009.2
20260504150259 72 320 0.9 3.5 0.00 0.00 0.00 54 1009.1
20260504141229 71 354 1.7 3.5 0.00 0.00 0.00 55 1008.6
20260504140725 70 9 2.6 4.3 0.00 0.00 0.00 55 1008.9
20260504140220 71 349 0.9 5.2 0.00 0.00 0.00 55 1008.9
20260504130649 67 354 2.6 4.3 0.00 0.00 0.00 61 1009.7
20260504130145 67 39 0.9 3.5 0.00 0.00 0.00 62 1009.7
20260504120110 60 19 1.7 2.6 0.00 0.00 0.00 75 1010.2
20260504110537 57 12 1.7 1.7 0.00 0.00 0.00 79 1009.9
20260504100459 57 316 1.7 1.7 0.00 0.00 0.00 79 1009.6
20260504081852 59 36 2.6 4.3 0.00 0.00 0.00 71 1009.5
20260504081349 60 340 1.7 2.6 0.00 0.00 0.00 70 1009.3
20260504080844 61 49 3.5 7.0 0.00 0.00 0.00 67 1009.6
20260504080342 61 72 5.2 7.8 0.00 0.00 0.00 67 1009.3
20260504070309 63 34 5.2 7.8 0.00 0.00 0.00 61 1009.8
20260504060230 65 145 1.7 5.2 0.00 0.00 0.00 57 1009.4
20260504050657 65 204 2.6 6.1 0.00 0.00 0.00 56 1009.3
20260504050154 65 111 3.5 11.3 0.00 0.00 0.00 56 1009.4
20260504045652 65 130 5.2 5.2 0.00 0.00 0.00 55 1009.5
20260504045152 66 38 3.5 6.1 0.00 0.00 0.00 55 1009.6
20260504044650 66 152 4.3 6.1 0.00 0.00 0.00 54 1009.8
20260504044146 66 116 1.7 7.8 0.00 0.00 0.00 54 1009.8
20260504043643 66 210 5.2 6.1 0.00 0.00 0.00 54 1010.2
20260504043141 66 45 1.7 7.8 0.00 0.00 0.00 53 1010.1
20260504042638 66 353 3.5 5.2 0.00 0.00 0.00 53 1010.2
20260504042134 66 52 2.6 5.2 0.00 0.00 0.00 53 1010.3
20260504041630 67 124 7.0 7.8 0.00 0.00 0.00 52 1010.4
20260504041126 67 113 1.7 5.2 0.00 0.00 0.00 52 1010.4
20260504040624 67 15 1.7 6.1 0.00 0.00 0.00 51 1010.5
20260504040121 67 337 4.3 6.1 0.00 0.00 0.00 51 1010.5
20260504035617 67 335 3.5 7.8 0.00 0.00 0.00 51 1010.6
20260504035114 67 8 2.6 7.8 0.00 0.00 0.00 51 1010.6
20260504034612 67 311 3.5 6.1 0.00 0.00 0.00 51 1010.7
20260504034108 67 67 5.2 6.1 0.00 0.00 0.00 51 1010.8
20260504033607 66 342 1.7 5.2 0.00 0.00 0.00 51 1010.9
20260504033103 66 322 1.7 4.3 0.00 0.00 0.00 52 1010.8
20260504032600 66 146 1.7 5.2 0.00 0.00 0.00 52 1010.8
20260504032057 66 114 1.7 3.5 0.00 0.00 0.00 53 1010.9
20260504031554 66 29 2.6 3.5 0.00 0.00 0.00 53 1010.8
20260504031050 67 74 1.7 3.5 0.00 0.00 0.00 53 1010.8
20260504030548 67 68 0.9 2.6 0.00 0.00 0.00 52 1010.8
20260504030043 68 130 1.7 7.8 0.00 0.00 0.00 50 1010.6
20260504025541 68 154 2.6 5.2 0.00 0.00 0.00 49 1010.7
20260504025038 68 160 1.7 4.3 0.00 0.00 0.00 48 1010.6
20260504024535 68 116 3.5 6.1 0.00 0.00 0.00 48 1010.7
20260504024031 68 239 0.9 5.2 0.00 0.00 0.00 48 1010.9
20260504023528 68 151 3.5 5.2 0.00 0.00 0.00 47 1010.8
20260504023024 68 163 0.9 6.1 0.00 0.00 0.00 47 1010.7
20260504022520 69 334 1.7 3.5 0.00 0.00 0.00 47 1010.6
20260504022017 69 129 2.6 3.5 0.00 0.00 0.00 47 1010.7
20260504021514 69 148 2.6 4.3 0.00 0.00 0.00 47 1010.6
20260504021011 69 143 4.3 7.0 0.00 0.00 0.00 46 1010.7
20260504020508 69 342 2.6 3.5 0.00 0.00 0.00 46 1010.4
20260504020005 69 232 3.5 5.2 0.00 0.00 0.00 46 1010.3
20260504015501 70 142 3.5 6.1 0.00 0.00 0.00 46 1010.5
20260504014956 70 44 2.6 4.3 0.00 0.00 0.00 45 1010.4
20260504014453 70 105 1.7 3.5 0.00 0.00 0.00 45 1010.2
20260504013950 70 74 3.5 5.2 0.00 0.00 0.00 44 1010.3
20260504013448 71 186 2.6 7.8 0.00 0.00 0.00 44 1010.2
20260504012944 71 165 1.7 4.3 0.00 0.00 0.00 44 1010.3
20260504012442 71 173 1.7 4.3 0.00 0.00 0.00 43 1010.1